Showing default

SHIYAN 27D, 63602

Orbit data source: Space-Track

SHIYAN 27D, 63602 is a payload satellite owned by CAST (CN) in SSO that was launched on Fri, 18 Apr 2025 UTC via a CHANG ZHENG 6A launch vehicle from the Taiyaun Space Center, China (TSC). Payload-class satellites include a variety of spacecraft equipped with specific instruments for various scientific and technological missions. These include communications satellites like Starlink; space stations such as the ISS; scientific satellites like the Hubble; Earth observation satellites from companies like Planet Labs, Umbra, and HawkEye 360; GPS; miniature CubeSats for education and research; and military/defense satellites.

Loading next visibility...
Identifier
63602, 2025-078D
Orbit
SSO
Country
Flag of CNCN / PRC
Related business
Manufacturer
CAST
Mission
Operational Defense Radar Imaging
Bus & Motor
SW27, Unknown motor
Mass
300 kg wet, ~300 kg dry
Launch date (UTC)
2025-04-18 (1 year ago)
Launch vehicle
CHANG ZHENG 6A
Launch site
Taiyaun Space Center, China (TSC)
Object type
Payload
Rocket body
Debris
Shape & HBR
Box + 1 Pan, 2.0 m
Radar Cross Section
13.200 m², Large (>1 m²)

Expand to show TLE details & history
Last TLE update: 11 hours ago

TLE from 11 hours ago
0 SHIYAN 27D
1 63602U 25078D   26133.50090225  .00000010  00000-0  75963-4 0  9992
2 63602  99.6934 141.2534 0001168  92.5557 267.5715 13.57246072 52825
Epoch: 2026-05-13T12:01Z
TLE epoch observation values (Epoch: 2026-05-13T12:01:17.954Z)
Latitude
-0.00002°
Longitude
89.66857°
Altitude
1,048.55 km
Speed
7.328 km/s
True Right ascension
09h 25m 00s
True Declination
0° 00' 00"
Sunlit
Object was in daylight at epoch
Visualization orbit readout
Latitude
Unknown
Longitude
Unknown
Altitude
Unknown
Speed
Unknown
Apparent Right ascension
Unknown
Apparent Declination
Unknown
Sunlit
N/A
Visualization observer readout
Local Sidereal Time
07:18:51
Azimuth
Unknown
Elevation
Unknown
Doppler factor
Unknown
Orbital elements
Apogee altitude
1,043.876 km
Perigee altitude
1,042.142 km
Semi-major axis
7,421.146 km
Eccentricity
0.00012
Inclination
99.6934°
RAAN
141.2534°
Arg. of periapsis
92.5557°
True anomaly
267.55813°
Mean anomaly
267.5715°
Eccentric anomaly
267.56481°
Mean motion
3.39498 °/min
Orbital period
106.04 mins
BSTAR
0.000075963
Loading maneuver chart data...
Computing Atmospheric mass density...
Loading historical data...
Loading historical data...
Loading historical data...
Loading historical data...
Loading historical data...
Loading historical data...
Loading historical data...

Documentation

Showing up to 5 results
|